Showing default

COSMOS 2502, 40358

Orbit data source: Space-Track

COSMOS 2502, 40358 is a payload satellite owned by VVKO (CIS) in LEO that was launched on Thu, 25 Dec 2014 UTC via a SOYUZ-2-1B launch vehicle from the Plesetsk Missile And Space Complex (PKMTR). Payload-class satellites include a variety of spacecraft equipped with specific instruments for various scientific and technological missions. These include communications satellites like Starlink; space stations such as the ISS; scientific satellites like the Hubble; Earth observation satellites from companies like Planet Labs, Umbra, and HawkEye 360; GPS; miniature CubeSats for education and research; and military/defense satellites.

Loading next visibility...
Identifier
40358, 2014-086A
Orbit
LEO
Last TLE update
9 hours ago
Origin
Manufacturer
TSSKBP/ARSLO
Mission
Operational Defense SIGINT
Bus & Motor
YANTAR'-LOTOS, 11D428
Mass
6,575 kg wet, ~6,500 kg dry
Launch date (UTC)
2014-12-25 (11 years ago)
Launch vehicle
SOYUZ-2-1B
Launch site
Plesetsk Missile And Space Complex (PKMTR)
Object type
Payload
Rocket body
Debris
Shape & HBR
Cyl + 2 Pan, 6.3 m
Radar Cross Section
16.222 m², Large (>1 m²)

Expand to show TLE details & history

TLE from 9 hours ago
0 COSMOS 2502
1 40358U 14086A   25183.89560583 -.00000017  00000-0  41448-4 0  9996
2 40358  67.1510 137.6377 0005307 250.1386 109.9128 13.97760816535131
Epoch: 2025-07-02T21:29Z
TLE epoch observation values (Epoch: 2025-07-02T21:29:40.343Z)
Latitude
0.00002°
Longitude
-105.95053°
Altitude
904.987 km
Speed
7.399 km/s
True Right ascension
09h 10m 33s
True Declination
0° 00' 00"
Sunlit
Object was in daylight at epoch
Visualization orbit readout
Latitude
24.64358°
Longitude
62.01815°
Altitude
904.188 km
Speed
7.402 km/s
Apparent Right ascension
23h 20m 41s
Apparent Declination
-18° 20' 31"
Sunlit
Object is in full shadow
Visualization observer readout
Local Sidereal Time
18:34:26
Azimuth
115.73° SE
Elevation
1.621°
Doppler factor
1
Orbital elements
Apogee altitude
903.77 km
Perigee altitude
896.045 km
Semi-major axis
7,278.044 km
Eccentricity
0.00053
Inclination
67.151°
RAAN
137.6377°
Arg. of periapsis
250.1386°
True anomaly
Unknown
Mean anomaly
109.9128°
Eccentric anomaly
Unknown
Mean motion
3.4956 °/min
Orbital period
102.99 mins
BSTAR
0.000041448
Loading maneuver chart data...
Loading SW <> Apogee altitude chart data...
Loading historical data...
Loading historical data...
Loading historical data...
Loading historical data...
Loading historical data...
Loading historical data...
Loading historical data...
Other satellites on launch #86 in the year 2014 (2014-12-25 UTC)

COSMOS 2502 Visibility forecast

Observer location: undefined°, undefined°

Span
Click to sort rows by Start time (UTC) header in descending order
Start Az.
Max El. time (UTC)
Max El. Az.
Max El.
End time (UTC)
End Az.
10 mins2025-07-03 08:22:41.756Z319.707° NNW2025-07-03 08:27:41.756Z239.23° WSW38.804°2025-07-03 08:32:41.756Z173.247° S
9 mins2025-07-03 21:39:41.756Z166.683° S2025-07-03 21:43:41.756Z109.202° ESE30.632°2025-07-03 21:48:41.756Z46.691° ENE
9 mins2025-07-03 23:25:41.756Z250.366° W2025-07-03 23:29:41.756Z311.854° NW30.74°2025-07-03 23:34:41.756Z12.591° NNE
8 mins2025-07-04 06:40:41.756Z357.208° N2025-07-04 06:44:41.756Z56.513° ENE29.093°2025-07-04 06:48:41.756Z109.652° ESE
|